TimeEST,TemperatureF,Dew PointF,Humidity,Sea Level PressureIn,VisibilityMPH,Wind Direction,Wind SpeedMPH,Gust SpeedMPH,PrecipitationIn,Events,Conditions,WindDirDegrees,DateUTC
12:53 AM,21.0,10.9,65,30.34,10.0,West,15.0,-,N/A,,Overcast,260,2013-12-24 05:53:00
1:53 AM,18.0,9.0,68,30.35,10.0,West,19.6,-,N/A,,Mostly Cloudy,260,2013-12-24 06:53:00
2:53 AM,15.1,8.1,74,30.38,10.0,West,17.3,-,N/A,,Partly Cloudy,270,2013-12-24 07:53:00
3:10 AM,15.8,8.6,73,30.35,10.0,West,16.1,-,N/A,,Mostly Cloudy,260,2013-12-24 08:10:00
3:53 AM,15.1,8.1,74,30.38,10.0,West,17.3,24.2,0.00,Snow,Light Snow,260,2013-12-24 08:53:00
4:53 AM,14.0,7.0,74,30.38,8.0,West,13.8,21.9,0.00,Snow,Light Snow,280,2013-12-24 09:53:00
5:53 AM,10.9,5.0,77,30.40,10.0,WNW,17.3,-,0.00,,Overcast,290,2013-12-24 10:53:00
6:53 AM,10.0,3.0,73,30.42,10.0,West,20.7,26.5,N/A,,Overcast,280,2013-12-24 11:53:00
7:53 AM,10.0,3.0,73,30.45,10.0,West,16.1,20.7,N/A,,Overcast,280,2013-12-24 12:53:00
8:53 AM,10.9,6.1,81,30.47,7.0,WNW,12.7,-,0.00,Snow,Light Snow,290,2013-12-24 13:53:00
9:11 AM,10.4,6.8,85,30.43,1.8,West,17.3,-,0.00,Snow,Light Snow,260,2013-12-24 14:11:00
9:30 AM,10.4,5.0,79,30.45,3.0,West,17.3,-,0.00,Snow,Light Snow,280,2013-12-24 14:30:00
9:53 AM,10.9,5.0,77,30.49,2.5,West,13.8,-,0.00,Snow,Light Snow,270,2013-12-24 14:53:00
10:03 AM,12.2,6.8,79,30.46,1.5,West,16.1,-,0.00,Snow,Light Snow,280,2013-12-24 15:03:00
10:23 AM,12.2,6.8,79,30.47,2.5,West,13.8,-,0.00,Snow,Light Snow,270,2013-12-24 15:23:00
10:35 AM,10.4,5.0,79,30.47,4.0,West,12.7,-,0.00,Snow,Light Snow,270,2013-12-24 15:35:00
10:42 AM,10.4,5.0,79,30.48,5.0,West,16.1,-,0.00,Snow,Light Snow,260,2013-12-24 15:42:00
10:53 AM,12.0,6.1,77,30.51,7.0,West,16.1,-,0.00,Snow,Light Snow,260,2013-12-24 15:53:00
11:08 AM,12.2,6.8,79,30.48,9.0,West,15.0,-,0.00,,Overcast,280,2013-12-24 16:08:00
11:53 AM,12.9,6.1,74,30.51,7.0,West,13.8,-,0.00,Snow,Light Snow,260,2013-12-24 16:53:00
12:53 PM,15.1,8.1,74,30.50,9.0,West,13.8,-,0.00,,Mostly Cloudy,270,2013-12-24 17:53:00
1:00 PM,15.8,8.6,73,30.47,10.0,WSW,13.8,-,N/A,,Mostly Cloudy,250,2013-12-24 18:00:00
1:12 PM,15.8,8.6,73,30.46,10.0,WSW,12.7,-,N/A,,Scattered Clouds,250,2013-12-24 18:12:00
1:53 PM,17.1,9.0,71,30.49,10.0,West,10.4,-,N/A,,Clear,270,2013-12-24 18:53:00
2:28 PM,17.6,8.6,68,30.47,10.0,West,12.7,18.4,N/A,,Mostly Cloudy,260,2013-12-24 19:28:00
2:53 PM,18.0,9.0,68,30.51,10.0,West,9.2,-,N/A,,Overcast,260,2013-12-24 19:53:00
3:53 PM,18.0,10.0,71,30.53,9.0,West,8.1,-,0.00,,Overcast,260,2013-12-24 20:53:00
4:53 PM,18.0,10.0,71,30.55,10.0,West,9.2,-,N/A,,Overcast,270,2013-12-24 21:53:00
5:53 PM,17.1,10.0,74,30.56,10.0,West,8.1,-,0.00,,Overcast,260,2013-12-24 22:53:00
6:14 PM,15.8,10.4,79,30.51,10.0,WSW,4.6,-,N/A,,Scattered Clouds,240,2013-12-24 23:14:00
6:53 PM,16.0,10.0,77,30.56,10.0,SW,4.6,-,N/A,,Clear,230,2013-12-24 23:53:00
7:53 PM,15.1,10.0,80,30.56,10.0,SW,3.5,-,N/A,,Clear,220,2013-12-25 00:53:00
8:53 PM,14.0,10.0,84,30.55,10.0,SSW,4.6,-,N/A,,Clear,200,2013-12-25 01:53:00
9:53 PM,14.0,10.0,84,30.54,10.0,Calm,Calm,-,N/A,,Clear,0,2013-12-25 02:53:00
10:53 PM,12.9,10.0,88,30.54,10.0,SSE,4.6,-,N/A,,Clear,160,2013-12-25 03:53:00
11:53 PM,14.0,10.0,84,30.52,10.0,SSE,3.5,-,N/A,,Clear,160,2013-12-25 04:53:00